This is the latest recevied weather packets stored in our database for station/object YO4ISC-13. If no packets are shown the sender has not sent any weather packets the latest 10 day(s).
| Time | Temp. | Humidity | Pressure | Rain* | Wind** | Luminosity | Snow |
|---|---|---|---|---|---|---|---|
| 1778139002 | 13.89° C | 78% | 1020 hPa | - | - | - | - |
| 1778138402 | 13.89° C | 79% | 1021 hPa | - | - | - | - |
| 1778137801 | 13.89° C | 77% | 1020 hPa | - | - | - | - |
| 1778137203 | 13.89° C | 77% | 1021 hPa | - | - | - | - |
| 1778136601 | 13.89° C | 78% | 1020 hPa | - | - | - | - |
| 1778136002 | 13.33° C | 77% | 1020 hPa | - | - | - | - |
| 1778135402 | 13.89° C | 75% | 1020 hPa | - | - | - | - |
| 1778134802 | 13.89° C | 77% | 1020 hPa | - | - | - | - |
| 1778134202 | 13.89° C | 79% | 1020 hPa | - | - | - | - |
| 1778133602 | 13.33° C | 79% | 1020 hPa | - | - | - | - |
| 1778133002 | 13.33° C | 81% | 1020 hPa | - | - | - | - |
| 1778132401 | 12.78° C | 82% | 1020 hPa | - | - | - | - |
| 1778131802 | 12.78° C | 83% | 1020 hPa | - | - | - | - |
| 1778131201 | 12.78° C | 84% | 1020 hPa | - | - | - | - |
| 1778130602 | 12.22° C | 85% | 1020 hPa | - | - | - | - |
| 1778130002 | 12.22° C | 85% | 1020 hPa | - | - | - | - |
| 1778129402 | 11.67° C | 88% | 1020 hPa | - | - | - | - |
| 1778128801 | 11.11° C | 91% | 1020 hPa | - | - | - | - |
| 1778128202 | 10.56° C | 94% | 1020 hPa | - | - | - | - |
| 1778127602 | 9.44° C | 96% | 1020 hPa | - | - | - | - |
| 1778127001 | 8.89° C | 96% | 1020 hPa | - | - | - | - |
| 1778126402 | 8.89° C | 96% | 1019 hPa | - | - | - | - |
| 1778125801 | 8.33° C | 96% | 1020 hPa | - | - | - | - |
| 1778125202 | 7.78° C | 96% | 1019 hPa | - | - | - | - |
| 1778124601 | 7.78° C | 96% | 1019 hPa | - | - | - | - |
* Rain since midnight (hover to see other rain measurements)
** Current wind speed in m/s (hover to see current wind gust speed)